Time,TemperatureF,DewpointF,PressureIn,WindDirection,WindDirectionDegrees,WindSpeedMPH,WindSpeedGustMPH,Humidity,HourlyPrecipIn,Conditions,Clouds,dailyrainin,SoftwareType,DateUTC
2013-04-29 00:01:00,50.5,45.2,30.87,ESE,112,0.0,0.0,82,0.00,,OVC070,0.00,VWS V14.00,2013-04-29 07:01:00,
2013-04-29 00:06:00,50.5,45.2,30.87,ESE,112,0.0,0.0,82,0.00,,OVC070,0.00,VWS V14.00,2013-04-29 07:06:00,
2013-04-29 00:11:00,50.7,45.4,30.87,ESE,112,0.0,0.0,82,0.00,,OVC070,0.00,VWS V14.00,2013-04-29 07:11:00,
2013-04-29 00:16:00,50.7,45.1,30.87,ESE,112,0.0,0.0,81,0.00,,OVC070,0.00,VWS V14.00,2013-04-29 07:16:00,
2013-04-29 00:21:00,51.0,45.4,30.86,South,180,2.4,2.4,81,0.00,,OVC070,0.00,VWS V14.00,2013-04-29 07:21:00,
2013-04-29 00:26:00,51.6,45.0,30.86,SSW,202,4.0,4.0,78,0.00,,OVC070,0.00,VWS V14.00,2013-04-29 07:26:00,
2013-04-29 00:31:00,52.5,44.5,30.87,SSW,202,3.3,3.3,74,0.00,,OVC070,0.00,VWS V14.00,2013-04-29 07:31:00,
2013-04-29 00:36:00,52.8,44.8,30.87,SSW,202,4.2,4.2,74,0.00,,OVC070,0.00,VWS V14.00,2013-04-29 07:36:00,
2013-04-29 00:41:00,53.2,44.4,30.86,South,180,6.7,6.7,72,0.00,,OVC070,0.00,VWS V14.00,2013-04-29 07:41:00,
2013-04-29 00:46:00,53.4,44.6,30.87,SSE,158,0.0,0.0,72,0.00,,OVC070,0.00,VWS V14.00,2013-04-29 07:46:00,
2013-04-29 00:51:00,53.4,45.0,30.87,South,180,4.4,4.4,73,0.00,,OVC070,0.00,VWS V14.00,2013-04-29 07:51:00,
2013-04-29 00:56:00,53.4,44.6,30.87,SSW,202,6.0,6.0,72,0.00,,OVC070,0.00,VWS V14.00,2013-04-29 07:56:00,
2013-04-29 01:01:00,53.4,44.6,30.87,North,0,0.0,0.0,72,0.00,,OVC045,0.00,VWS V14.00,2013-04-29 08:01:00,
2013-04-29 01:06:00,53.2,44.4,30.87,South,180,10.2,10.2,72,0.00,,OVC045,0.00,VWS V14.00,2013-04-29 08:06:00,
2013-04-29 01:11:00,53.2,44.8,30.87,SSW,202,3.3,3.3,73,0.00,,OVC045,0.00,VWS V14.00,2013-04-29 08:11:00,
2013-04-29 01:16:00,52.8,44.8,30.87,SSW,202,4.2,4.2,74,0.00,,OVC045,0.00,VWS V14.00,2013-04-29 08:16:00,
2013-04-29 01:20:00,52.7,45.0,30.87,SSW,202,7.8,7.8,75,0.00,,OVC029,0.00,VWS V14.00,2013-04-29 08:20:00,
2013-04-29 01:25:00,52.5,45.2,30.87,SSW,202,6.2,6.2,76,0.00,,OVC029,0.00,VWS V14.00,2013-04-29 08:25:00,
2013-04-29 01:30:00,52.3,45.3,30.87,SSW,202,4.2,7.3,77,0.00,,OVC029,0.00,VWS V14.00,2013-04-29 08:30:00,
2013-04-29 01:35:00,52.1,45.1,30.87,South,180,0.0,0.0,77,0.00,,OVC029,0.00,VWS V14.00,2013-04-29 08:35:00,
2013-04-29 01:40:00,51.9,45.6,30.87,SSE,158,9.3,9.3,79,0.00,,OVC029,0.00,VWS V14.00,2013-04-29 08:40:00,
2013-04-29 01:45:00,51.8,45.5,30.86,SSW,202,8.2,8.2,79,0.00,,OVC029,0.00,VWS V14.00,2013-04-29 08:45:00,
2013-04-29 01:50:00,51.6,45.6,30.87,SSW,202,2.4,6.4,80,0.00,,OVC029,0.00,VWS V14.00,2013-04-29 08:50:00,
2013-04-29 01:55:00,51.4,45.8,30.86,SSW,202,5.5,5.5,81,0.00,,OVC029,0.00,VWS V14.00,2013-04-29 08:55:00,
2013-04-29 02:00:00,51.2,45.9,30.86,South,180,1.3,1.3,82,0.00,,OVC027,0.00,VWS V14.00,2013-04-29 09:00:00,
2013-04-29 02:05:00,51.0,45.7,30.86,SSW,202,0.0,0.0,82,0.00,,OVC027,0.00,VWS V14.00,2013-04-29 09:05:00,
2013-04-29 02:10:00,50.7,45.7,30.86,WSW,248,1.5,1.5,83,0.00,,OVC027,0.00,VWS V14.00,2013-04-29 09:10:00,
2013-04-29 02:15:00,50.7,46.0,30.86,West,270,0.0,0.0,84,0.00,,OVC027,0.00,VWS V14.00,2013-04-29 09:15:00,
2013-04-29 02:20:00,50.5,45.8,30.86,SW,225,0.0,0.0,84,0.00,,-RA,0.00,VWS V14.00,2013-04-29 09:20:00,
2013-04-29 02:25:00,50.3,46.0,30.86,SW,225,0.0,0.0,85,0.00,,-RA,0.00,VWS V14.00,2013-04-29 09:25:00,
2013-04-29 02:30:00,50.1,45.8,30.86,WSW,248,1.1,1.1,85,0.00,,-RA,0.00,VWS V14.00,2013-04-29 09:30:00,
2013-04-29 02:35:00,50.1,45.8,30.87,WSW,248,0.0,0.0,85,0.00,,-RA,0.00,VWS V14.00,2013-04-29 09:35:00,
2013-04-29 02:40:00,50.1,45.8,30.86,West,270,1.5,1.5,85,0.00,,-RA,0.00,VWS V14.00,2013-04-29 09:40:00,
2013-04-29 02:45:00,50.1,46.1,30.87,West,270,0.0,0.0,86,0.00,,-RA,0.00,VWS V14.00,2013-04-29 09:45:00,
2013-04-29 02:50:00,50.1,46.1,30.87,West,270,0.0,0.0,86,0.00,,-RA,0.00,VWS V14.00,2013-04-29 09:50:00,
2013-04-29 02:55:00,50.1,46.1,30.87,West,270,0.0,0.0,86,0.00,,-RA,0.00,VWS V14.00,2013-04-29 09:55:00,
2013-04-29 03:00:00,50.1,46.1,30.87,West,270,0.0,0.0,86,0.00,,-RA,0.00,VWS V14.00,2013-04-29 10:00:00,
2013-04-29 03:05:00,50.1,46.1,30.87,West,270,2.9,2.9,86,0.00,,-RA,0.00,VWS V14.00,2013-04-29 10:05:00,
2013-04-29 03:10:00,50.0,46.0,30.87,WNW,292,3.8,3.8,86,0.00,,-RA,0.00,VWS V14.00,2013-04-29 10:10:00,
2013-04-29 03:15:00,50.1,46.1,30.87,WNW,292,8.7,8.7,86,0.00,,-RA,0.00,VWS V14.00,2013-04-29 10:15:00,
2013-04-29 03:20:00,50.1,45.8,30.87,West,270,9.8,9.8,85,0.00,,-RA,0.00,VWS V14.00,2013-04-29 10:20:00,
2013-04-29 03:25:00,50.7,45.4,30.88,WNW,292,7.1,7.1,82,0.00,,-RA,0.00,VWS V14.00,2013-04-29 10:25:00,
2013-04-29 03:30:00,50.7,45.1,30.88,West,270,8.0,8.0,81,0.00,,-RA,0.00,VWS V14.00,2013-04-29 10:30:00,
2013-04-29 03:35:00,50.9,45.0,30.88,WNW,292,5.1,8.2,80,0.00,,-RA,0.00,VWS V14.00,2013-04-29 10:35:00,
2013-04-29 03:40:00,50.9,45.3,30.89,NW,315,8.5,8.5,81,0.00,,-RA,0.00,VWS V14.00,2013-04-29 10:40:00,
2013-04-29 03:45:00,50.7,45.4,30.89,NNW,338,3.3,3.3,82,0.00,,-RA,0.00,VWS V14.00,2013-04-29 10:45:00,
2013-04-29 03:50:00,50.3,45.0,30.89,WNW,292,8.9,8.9,82,0.00,,-RA,0.00,VWS V14.00,2013-04-29 10:50:00,
2013-04-29 03:55:00,49.8,44.5,30.89,NW,315,9.6,9.6,82,0.00,,-RA,0.00,VWS V14.00,2013-04-29 10:55:00,
2013-04-29 04:00:00,49.6,44.3,30.89,NW,315,8.5,8.5,82,0.00,,-RA,0.00,VWS V14.00,2013-04-29 11:00:00,
2013-04-29 04:05:00,49.6,44.3,30.90,North,0,7.6,7.6,82,0.00,,-RA,0.00,VWS V14.00,2013-04-29 11:05:00,
2013-04-29 04:10:00,49.2,44.3,30.90,North,0,6.2,6.2,83,0.00,,-RA,0.00,VWS V14.00,2013-04-29 11:10:00,
2013-04-29 04:15:00,48.7,43.8,30.90,NW,315,9.8,9.8,83,0.00,,-RA,0.00,VWS V14.00,2013-04-29 11:15:00,
2013-04-29 04:20:00,48.0,42.8,30.90,WNW,292,11.4,11.4,82,0.00,,-RA,0.00,VWS V14.00,2013-04-29 11:20:00,
2013-04-29 04:25:00,47.1,42.2,30.90,WNW,292,14.0,14.0,83,0.00,,-RA,0.00,VWS V14.00,2013-04-29 11:25:00,
2013-04-29 04:30:00,46.5,41.9,30.90,NW,315,6.4,6.4,84,0.00,,-RA,0.00,VWS V14.00,2013-04-29 11:30:00,
2013-04-29 04:35:00,46.2,41.6,30.90,NW,315,14.9,14.9,84,0.00,,-RA,0.00,VWS V14.00,2013-04-29 11:35:00,
2013-04-29 04:40:00,46.0,41.8,30.90,NW,315,17.8,17.8,85,0.00,,-RA,0.00,VWS V14.00,2013-04-29 11:40:00,
2013-04-29 04:45:00,46.0,41.4,30.90,WNW,292,13.6,13.6,84,0.00,,-RA,0.00,VWS V14.00,2013-04-29 11:45:00,
2013-04-29 04:50:00,46.2,41.6,30.90,NNW,338,6.2,6.2,84,0.00,,-RA,0.00,VWS V14.00,2013-04-29 11:50:00,
2013-04-29 04:55:00,46.2,41.3,30.90,NNW,338,20.8,20.8,83,0.00,,-RA,0.00,VWS V14.00,2013-04-29 11:55:00,
2013-04-29 05:00:00,46.2,41.3,30.91,NW,315,12.0,12.0,83,0.00,,-RA,0.00,VWS V14.00,2013-04-29 12:00:00,
2013-04-29 05:05:00,46.0,41.4,30.91,WNW,292,10.9,10.9,84,0.00,,OVC031,0.00,VWS V14.00,2013-04-29 12:05:00,
2013-04-29 05:10:00,45.8,41.2,30.91,NNW,338,8.5,8.5,84,0.00,,OVC031,0.00,VWS V14.00,2013-04-29 12:10:00,
2013-04-29 05:15:00,45.6,41.0,30.92,NW,315,10.2,10.2,84,0.00,,OVC031,0.00,VWS V14.00,2013-04-29 12:15:00,
2013-04-29 05:20:00,45.6,41.0,30.91,NW,315,2.4,2.4,84,0.00,,OVC031,0.00,VWS V14.00,2013-04-29 12:20:00,
2013-04-29 05:25:00,45.8,41.2,30.91,NNW,338,7.8,7.8,84,0.00,,OVC031,0.00,VWS V14.00,2013-04-29 12:25:00,
2013-04-29 05:30:00,46.0,41.4,30.91,NNW,338,6.4,6.4,84,0.00,,OVC031,0.00,VWS V14.00,2013-04-29 12:30:00,
2013-04-29 05:35:00,46.0,41.1,30.91,NW,315,6.0,6.0,83,0.00,,OVC031,0.00,VWS V14.00,2013-04-29 12:35:00,
2013-04-29 05:40:00,46.2,41.3,30.91,NNW,338,6.0,6.0,83,0.00,,OVC031,0.00,VWS V14.00,2013-04-29 12:40:00,
2013-04-29 05:45:00,46.2,41.3,30.92,NW,315,3.1,3.1,83,0.00,,OVC031,0.00,VWS V14.00,2013-04-29 12:45:00,
2013-04-29 05:50:00,46.2,41.3,30.91,NW,315,7.3,7.3,83,0.00,,OVC031,0.00,VWS V14.00,2013-04-29 12:50:00,
2013-04-29 05:55:00,46.2,41.3,30.92,NW,315,6.7,6.7,83,0.00,,OVC031,0.00,VWS V14.00,2013-04-29 12:55:00,
2013-04-29 06:00:00,46.2,41.3,30.92,NW,315,6.2,6.2,83,0.00,,OVC031,0.00,VWS V14.00,2013-04-29 13:00:00,
2013-04-29 06:05:00,46.2,41.3,30.92,NW,315,0.0,0.0,83,0.00,,OVC031,0.00,VWS V14.00,2013-04-29 13:05:00,
2013-04-29 06:10:00,46.0,41.1,30.92,NW,315,0.0,0.0,83,0.00,,OVC031,0.00,VWS V14.00,2013-04-29 13:10:00,
2013-04-29 06:15:00,46.0,41.1,30.92,NNW,338,3.1,3.1,83,0.00,,OVC031,0.00,VWS V14.00,2013-04-29 13:15:00,
2013-04-29 06:20:00,46.0,41.1,30.93,NNW,338,0.0,0.0,83,0.00,,OVC055,0.00,VWS V14.00,2013-04-29 13:20:00,
2013-04-29 06:25:00,46.0,41.1,30.93,North,0,0.0,0.0,83,0.00,,OVC055,0.00,VWS V14.00,2013-04-29 13:25:00,
2013-04-29 06:30:00,46.0,41.1,30.93,North,0,0.0,0.0,83,0.00,,OVC055,0.00,VWS V14.00,2013-04-29 13:30:00,
2013-04-29 06:35:00,46.2,41.3,30.94,North,0,0.0,0.0,83,0.00,,OVC055,0.00,VWS V14.00,2013-04-29 13:35:00,
2013-04-29 06:40:00,46.2,41.0,30.93,North,0,0.0,0.0,82,0.00,,-RA,0.00,VWS V14.00,2013-04-29 13:40:00,
2013-04-29 06:45:00,46.5,41.3,30.93,North,0,0.0,0.0,82,0.00,,-RA,0.00,VWS V14.00,2013-04-29 13:45:00,
2013-04-29 06:50:00,46.5,41.3,30.93,North,0,0.0,0.0,82,0.00,,-RA,0.00,VWS V14.00,2013-04-29 13:50:00,
2013-04-29 06:55:00,46.7,41.5,30.93,North,0,0.0,0.0,82,0.00,,-RA,0.00,VWS V14.00,2013-04-29 13:55:00,
2013-04-29 07:00:00,46.9,41.7,30.94,North,0,0.0,0.0,82,0.00,,-RA,0.00,VWS V14.00,2013-04-29 14:00:00,
2013-04-29 07:05:00,46.9,41.4,30.94,North,0,0.0,0.0,81,0.00,,-RA,0.00,VWS V14.00,2013-04-29 14:05:00,
2013-04-29 07:10:00,47.1,41.6,30.94,North,0,0.0,0.0,81,0.00,,-RA,0.00,VWS V14.00,2013-04-29 14:10:00,
2013-04-29 07:15:00,47.1,41.3,30.94,North,0,0.0,0.0,80,0.00,,-RA,0.00,VWS V14.00,2013-04-29 14:15:00,
2013-04-29 07:20:00,47.3,41.5,30.94,North,0,0.0,0.0,80,0.00,,-RA,0.00,VWS V14.00,2013-04-29 14:20:00,
2013-04-29 07:25:00,47.4,41.5,30.94,North,0,0.0,0.0,80,0.00,,-RA,0.00,VWS V14.00,2013-04-29 14:25:00,
2013-04-29 07:30:00,48.0,41.8,30.95,North,0,0.0,0.0,79,0.00,,-RA,0.00,VWS V14.00,2013-04-29 14:30:00,
2013-04-29 07:35:00,48.0,41.8,30.95,North,0,0.0,0.0,79,0.00,,-RA,0.00,VWS V14.00,2013-04-29 14:35:00,
2013-04-29 07:40:00,48.5,42.0,30.95,WNW,292,0.0,0.0,78,0.00,,OVC060,0.00,VWS V14.00,2013-04-29 14:40:00,
2013-04-29 07:45:00,48.7,41.5,30.96,NW,315,2.0,2.0,76,0.00,,OVC060,0.00,VWS V14.00,2013-04-29 14:45:00,
2013-04-29 07:50:00,48.9,41.3,30.96,NNW,338,0.0,0.0,75,0.00,,OVC060,0.00,VWS V14.00,2013-04-29 14:50:00,
2013-04-29 07:55:00,48.9,41.3,30.96,NNW,338,0.0,0.0,75,0.00,,OVC060,0.00,VWS V14.00,2013-04-29 14:55:00,
2013-04-29 08:00:00,49.1,40.8,30.96,NW,315,0.0,0.0,73,0.00,,OVC060,0.00,VWS V14.00,2013-04-29 15:00:00,
2013-04-29 08:05:00,49.2,40.6,30.96,West,270,0.0,0.0,72,0.00,,OVC060,0.00,VWS V14.00,2013-04-29 15:05:00,
2013-04-29 08:10:00,49.8,40.4,30.96,West,270,0.0,0.0,70,0.00,,OVC060,0.00,VWS V14.00,2013-04-29 15:10:00,
2013-04-29 08:15:00,49.8,39.7,30.96,West,270,4.0,4.0,68,0.00,,OVC060,0.00,VWS V14.00,2013-04-29 15:15:00,
2013-04-29 08:20:00,49.8,39.3,30.96,West,270,7.3,7.3,67,0.00,,OVC060,0.00,VWS V14.00,2013-04-29 15:20:00,
2013-04-29 08:25:00,50.1,39.2,30.96,West,270,3.3,3.3,66,0.00,,OVC060,0.00,VWS V14.00,2013-04-29 15:25:00,
2013-04-29 08:30:00,50.7,39.4,30.97,WSW,248,3.3,3.3,65,0.00,,OVC060,0.00,VWS V14.00,2013-04-29 15:30:00,
2013-04-29 08:35:00,50.9,40.0,30.97,West,270,0.0,0.0,66,0.00,,OVC060,0.00,VWS V14.00,2013-04-29 15:35:00,
2013-04-29 08:40:00,51.4,40.0,30.97,West,270,3.3,3.3,65,0.00,,OVC060,0.00,VWS V14.00,2013-04-29 15:40:00,
2013-04-29 08:45:00,51.4,40.0,30.97,NW,315,3.1,3.1,65,0.00,,OVC060,0.00,VWS V14.00,2013-04-29 15:45:00,
2013-04-29 08:50:00,51.4,39.7,30.97,NW,315,9.3,9.3,64,0.00,,OVC060,0.00,VWS V14.00,2013-04-29 15:50:00,
2013-04-29 08:55:00,51.6,39.8,30.97,West,270,4.6,4.6,64,0.00,,OVC060,0.00,VWS V14.00,2013-04-29 15:55:00,
2013-04-29 09:00:00,51.9,40.5,30.97,West,270,6.2,6.2,65,0.00,,OVC060,0.00,VWS V14.00,2013-04-29 16:00:00,
2013-04-29 09:05:00,52.3,40.1,30.97,WNW,292,2.0,2.0,63,0.00,,CLR,0.00,VWS V14.00,2013-04-29 16:05:00,
2013-04-29 09:10:00,52.3,40.5,30.97,WNW,292,0.0,0.0,64,0.00,,CLR,0.00,VWS V14.00,2013-04-29 16:10:00,
2013-04-29 09:15:00,52.5,40.3,30.97,NW,315,5.5,5.5,63,0.00,,CLR,0.00,VWS V14.00,2013-04-29 16:15:00,
2013-04-29 09:20:00,51.9,39.7,30.97,WNW,292,5.8,5.8,63,0.00,,CLR,0.00,VWS V14.00,2013-04-29 16:20:00,
2013-04-29 09:25:00,51.6,39.8,30.97,NW,315,6.0,6.0,64,0.00,,CLR,0.00,VWS V14.00,2013-04-29 16:25:00,
2013-04-29 09:30:00,51.6,40.2,30.97,West,270,2.4,2.4,65,0.00,,CLR,0.00,VWS V14.00,2013-04-29 16:30:00,
2013-04-29 09:35:00,51.8,40.4,30.97,NW,315,6.7,6.7,65,0.00,,CLR,0.00,VWS V14.00,2013-04-29 16:35:00,
2013-04-29 09:40:00,52.3,40.9,30.97,West,270,5.1,5.1,65,0.00,,CLR,0.00,VWS V14.00,2013-04-29 16:40:00,
2013-04-29 09:45:00,52.5,40.7,30.97,West,270,1.1,1.1,64,0.00,,CLR,0.00,VWS V14.00,2013-04-29 16:45:00,
2013-04-29 09:50:00,53.2,40.5,30.97,NW,315,1.5,1.5,62,0.00,,CLR,0.00,VWS V14.00,2013-04-29 16:50:00,
2013-04-29 09:55:00,53.2,40.5,30.97,WSW,248,6.9,6.9,62,0.00,,CLR,0.00,VWS V14.00,2013-04-29 16:55:00,
2013-04-29 10:00:00,52.8,39.7,30.97,West,270,7.1,7.1,61,0.00,,CLR,0.00,VWS V14.00,2013-04-29 17:00:00,
2013-04-29 10:05:00,51.6,39.8,30.98,WNW,292,8.7,8.7,64,0.00,,FEW055,0.00,VWS V14.00,2013-04-29 17:05:00,
2013-04-29 10:10:00,49.8,40.4,30.98,NNW,338,8.2,8.2,70,0.00,,FEW055,0.00,VWS V14.00,2013-04-29 17:10:00,
2013-04-29 10:15:00,48.7,40.1,30.98,NW,315,15.4,15.4,72,0.00,,FEW055,0.00,VWS V14.00,2013-04-29 17:15:00,
2013-04-29 10:20:00,48.5,40.2,30.98,NNW,338,3.5,3.5,73,0.00,,FEW055,0.00,VWS V14.00,2013-04-29 17:20:00,
2013-04-29 10:25:00,48.7,40.8,30.99,NW,315,16.5,16.5,74,0.00,,FEW055,0.00,VWS V14.00,2013-04-29 17:25:00,
2013-04-29 10:30:00,48.3,40.1,30.99,NNW,338,15.2,15.2,73,0.00,,FEW055,0.00,VWS V14.00,2013-04-29 17:30:00,
2013-04-29 10:35:00,48.2,39.2,30.99,West,270,2.6,2.6,71,0.00,,FEW055,0.00,VWS V14.00,2013-04-29 17:35:00,
2013-04-29 10:40:00,48.3,39.3,30.99,NW,315,6.7,6.7,71,0.00,,FEW055,0.00,VWS V14.00,2013-04-29 17:40:00,
2013-04-29 10:45:00,49.2,40.2,30.99,NW,315,6.0,6.0,71,0.00,,SCT065,0.00,VWS V14.00,2013-04-29 17:45:00,
2013-04-29 10:50:00,52.3,40.9,30.99,WNW,292,2.2,2.2,65,0.00,,SCT065,0.00,VWS V14.00,2013-04-29 17:50:00,
2013-04-29 10:55:00,55.0,41.8,30.99,North,0,4.6,4.6,61,0.00,,SCT065,0.00,VWS V14.00,2013-04-29 17:55:00,
2013-04-29 11:00:00,56.1,41.5,30.99,NNW,338,11.4,11.4,58,0.00,,SCT065,0.00,VWS V14.00,2013-04-29 18:00:00,
2013-04-29 11:05:00,55.9,40.0,30.99,NW,315,4.9,4.9,55,0.00,,SCT065,0.00,VWS V14.00,2013-04-29 18:05:00,
2013-04-29 11:10:00,56.1,40.2,30.99,WNW,292,6.9,6.9,55,0.00,,SCT065,0.00,VWS V14.00,2013-04-29 18:10:00,
2013-04-29 11:15:00,56.8,40.3,30.99,NW,315,9.1,9.1,54,0.00,,SCT065,0.00,VWS V14.00,2013-04-29 18:15:00,
2013-04-29 11:20:00,57.3,39.8,30.99,WNW,292,0.0,0.0,52,0.00,,SCT065,0.00,VWS V14.00,2013-04-29 18:20:00,
2013-04-29 11:25:00,56.8,39.4,30.99,NNW,338,0.0,0.0,52,0.00,,BKN060,0.00,VWS V14.00,2013-04-29 18:25:00,
2013-04-29 11:30:00,55.4,38.1,30.99,NW,315,9.8,9.8,52,0.00,,BKN060,0.00,VWS V14.00,2013-04-29 18:30:00,
2013-04-29 11:35:00,54.1,37.8,30.99,NW,315,9.1,9.1,54,0.00,,BKN060,0.00,VWS V14.00,2013-04-29 18:35:00,
2013-04-29 11:40:00,54.5,38.7,30.99,NNW,338,5.3,5.3,55,0.00,,BKN060,0.00,VWS V14.00,2013-04-29 18:40:00,
2013-04-29 11:45:00,54.5,37.2,30.99,NW,315,7.8,7.8,52,0.00,,BKN060,0.00,VWS V14.00,2013-04-29 18:45:00,
2013-04-29 11:50:00,56.1,36.7,30.99,WSW,248,12.3,12.3,48,0.00,,BKN060,0.00,VWS V14.00,2013-04-29 18:50:00,
2013-04-29 11:55:00,58.1,37.5,30.99,WNW,292,9.6,9.6,46,0.00,,BKN060,0.00,VWS V14.00,2013-04-29 18:55:00,
2013-04-29 12:00:00,58.8,37.0,30.99,West,270,4.2,4.2,44,0.00,,BKN060,0.00,VWS V14.00,2013-04-29 19:00:00,
2013-04-29 12:05:00,59.7,37.2,30.99,West,270,11.6,11.6,43,0.00,,CLR,0.00,VWS V14.00,2013-04-29 19:05:00,
2013-04-29 12:10:00,58.8,37.0,30.99,West,270,2.4,2.4,44,0.00,,CLR,0.00,VWS V14.00,2013-04-29 19:10:00,
2013-04-29 12:15:00,61.5,38.2,30.99,North,0,6.2,6.2,42,0.00,,CLR,0.00,VWS V14.00,2013-04-29 19:15:00,
2013-04-29 12:20:00,61.5,38.2,30.99,WNW,292,4.2,4.2,42,0.00,,CLR,0.00,VWS V14.00,2013-04-29 19:20:00,
2013-04-29 12:25:00,61.5,37.6,30.99,West,270,4.9,4.9,41,0.00,,CLR,0.00,VWS V14.00,2013-04-29 19:25:00,
2013-04-29 12:30:00,61.7,37.2,30.98,West,270,2.4,2.4,40,0.00,,CLR,0.00,VWS V14.00,2013-04-29 19:30:00,
2013-04-29 12:35:00,61.7,35.9,30.99,West,270,2.4,2.4,38,0.00,,CLR,0.00,VWS V14.00,2013-04-29 19:35:00,
2013-04-29 12:40:00,60.2,35.2,30.98,West,270,0.0,0.0,39,0.00,,CLR,0.00,VWS V14.00,2013-04-29 19:40:00,
2013-04-29 12:45:00,59.9,35.5,30.99,West,270,4.6,4.6,40,0.00,,CLR,0.00,VWS V14.00,2013-04-29 19:45:00,
2013-04-29 12:50:00,59.1,33.5,30.98,WSW,248,5.5,5.5,38,0.00,,CLR,0.00,VWS V14.00,2013-04-29 19:50:00,
2013-04-29 12:55:00,58.6,32.4,30.98,WNW,292,11.6,11.6,37,0.00,,CLR,0.00,VWS V14.00,2013-04-29 19:55:00,
2013-04-29 13:00:00,58.8,33.3,30.99,West,270,8.0,8.0,38,0.00,,CLR,0.00,VWS V14.00,2013-04-29 20:00:00,
2013-04-29 13:05:00,60.6,33.5,30.98,West,270,2.6,2.6,36,0.00,,CLR,0.00,VWS V14.00,2013-04-29 20:05:00,
2013-04-29 13:10:00,60.6,34.2,30.98,WNW,292,5.1,5.1,37,0.00,,CLR,0.00,VWS V14.00,2013-04-29 20:10:00,
2013-04-29 13:15:00,58.8,33.9,30.98,West,270,12.5,12.5,39,0.00,,CLR,0.00,VWS V14.00,2013-04-29 20:15:00,
2013-04-29 13:20:00,57.9,33.8,30.99,West,270,0.0,0.0,40,0.00,,CLR,0.00,VWS V14.00,2013-04-29 20:20:00,
2013-04-29 13:25:00,58.2,34.0,30.98,West,270,6.4,6.4,40,0.00,,CLR,0.00,VWS V14.00,2013-04-29 20:25:00,
2013-04-29 13:30:00,57.2,33.7,30.98,WNW,292,11.1,11.1,41,0.00,,CLR,0.00,VWS V14.00,2013-04-29 20:30:00,
2013-04-29 13:35:00,57.5,34.0,30.98,West,270,1.7,1.7,41,0.00,,CLR,0.00,VWS V14.00,2013-04-29 20:35:00,
2013-04-29 13:40:00,58.2,33.4,30.98,NNW,338,11.1,11.1,39,0.00,,CLR,0.00,VWS V14.00,2013-04-29 20:40:00,
2013-04-29 13:45:00,57.9,33.8,30.98,NW,315,4.6,4.6,40,0.00,,CLR,0.00,VWS V14.00,2013-04-29 20:45:00,
2013-04-29 13:50:00,58.1,33.9,30.98,NW,315,6.7,6.7,40,0.00,,CLR,0.00,VWS V14.00,2013-04-29 20:50:00,
2013-04-29 13:55:00,57.0,32.9,30.97,North,0,6.7,6.7,40,0.00,,CLR,0.00,VWS V14.00,2013-04-29 20:55:00,
2013-04-29 14:00:00,56.3,32.9,30.97,West,270,3.5,3.5,41,0.00,,CLR,0.00,VWS V14.00,2013-04-29 21:00:00,
2013-04-29 14:05:00,57.0,34.8,30.98,NW,315,13.1,13.1,43,0.00,,CLR,0.00,VWS V14.00,2013-04-29 21:05:00,
2013-04-29 14:10:00,57.7,34.8,30.98,SW,225,11.1,11.1,42,0.00,,CLR,0.00,VWS V14.00,2013-04-29 21:10:00,
2013-04-29 14:15:00,57.5,33.4,30.98,NW,315,9.6,9.6,40,0.00,,CLR,0.00,VWS V14.00,2013-04-29 21:15:00,
2013-04-29 14:20:00,57.5,32.8,30.98,WNW,292,3.5,3.5,39,0.00,,CLR,0.00,VWS V14.00,2013-04-29 21:20:00,
2013-04-29 14:25:00,57.7,31.0,30.98,WNW,292,18.7,18.7,36,0.00,,FEW055,0.00,VWS V14.00,2013-04-29 21:25:00,
2013-04-29 14:30:00,57.0,31.0,30.99,WNW,292,8.0,8.0,37,0.00,,FEW055,0.00,VWS V14.00,2013-04-29 21:30:00,
2013-04-29 14:35:00,57.0,31.7,30.98,WSW,248,2.6,2.6,38,0.00,,FEW055,0.00,VWS V14.00,2013-04-29 21:35:00,
2013-04-29 14:40:00,57.0,32.9,30.99,NW,315,8.2,8.2,40,0.00,,FEW055,0.00,VWS V14.00,2013-04-29 21:40:00,
2013-04-29 14:45:00,56.1,33.3,30.99,WNW,292,10.9,10.9,42,0.00,,FEW055,0.00,VWS V14.00,2013-04-29 21:45:00,
2013-04-29 14:50:00,55.9,33.8,30.98,WNW,292,4.4,4.4,43,0.00,,FEW055,0.00,VWS V14.00,2013-04-29 21:50:00,
2013-04-29 14:55:00,56.6,33.2,30.98,NW,315,8.5,8.5,41,0.00,,FEW055,0.00,VWS V14.00,2013-04-29 21:55:00,
2013-04-29 15:00:00,56.8,33.4,30.98,WNW,292,6.0,6.0,41,0.00,,FEW055,0.00,VWS V14.00,2013-04-29 22:00:00,
2013-04-29 15:05:00,56.4,33.0,30.98,NW,315,13.4,13.4,41,0.00,,BKN065,0.00,VWS V14.00,2013-04-29 22:05:00,
2013-04-29 15:10:00,57.0,33.5,30.98,WNW,292,7.6,7.6,41,0.00,,BKN065,0.00,VWS V14.00,2013-04-29 22:10:00,
2013-04-29 15:15:00,57.0,32.9,30.97,WNW,292,9.3,9.3,40,0.00,,BKN065,0.00,VWS V14.00,2013-04-29 22:15:00,
2013-04-29 15:20:00,57.3,32.6,30.98,West,270,0.0,0.0,39,0.00,,BKN065,0.00,VWS V14.00,2013-04-29 22:20:00,
2013-04-29 15:25:00,57.7,33.6,30.98,NNW,338,6.9,6.9,40,0.00,,BKN065,0.00,VWS V14.00,2013-04-29 22:25:00,
2013-04-29 15:30:00,57.5,34.0,30.98,North,0,13.8,13.8,41,0.00,,BKN065,0.00,VWS V14.00,2013-04-29 22:30:00,
2013-04-29 15:35:00,57.5,34.0,30.98,NW,315,14.3,14.3,41,0.00,,BKN065,0.00,VWS V14.00,2013-04-29 22:35:00,
2013-04-29 15:40:00,57.0,33.5,30.98,NNW,338,2.9,2.9,41,0.00,,BKN065,0.00,VWS V14.00,2013-04-29 22:40:00,
2013-04-29 15:45:00,57.0,32.9,30.98,NNW,338,15.2,15.2,40,0.00,,BKN065,0.00,VWS V14.00,2013-04-29 22:45:00,
2013-04-29 15:50:00,57.5,33.4,30.98,West,270,11.1,11.1,40,0.00,,BKN065,0.00,VWS V14.00,2013-04-29 22:50:00,
2013-04-29 15:55:00,57.7,32.9,30.98,WSW,248,6.4,6.4,39,0.00,,BKN065,0.00,VWS V14.00,2013-04-29 22:55:00,
2013-04-29 16:00:00,57.9,33.8,30.98,NW,315,12.5,12.5,40,0.00,,BKN065,0.00,VWS V14.00,2013-04-29 23:00:00,
2013-04-29 16:05:00,57.7,33.6,30.98,NW,315,13.4,13.4,40,0.00,,BKN065,0.00,VWS V14.00,2013-04-29 23:05:00,
2013-04-29 16:10:00,57.0,33.5,30.98,NW,315,15.8,15.8,41,0.00,,BKN065,0.00,VWS V14.00,2013-04-29 23:10:00,
2013-04-29 16:15:00,56.8,34.0,30.99,NW,315,8.0,8.0,42,0.00,,BKN065,0.00,VWS V14.00,2013-04-29 23:15:00,
2013-04-29 16:20:00,57.9,33.8,30.99,NW,315,11.6,11.6,40,0.00,,BKN065,0.00,VWS V14.00,2013-04-29 23:20:00,
2013-04-29 16:25:00,58.1,33.9,30.99,NW,315,10.9,10.9,40,0.00,,BKN065,0.00,VWS V14.00,2013-04-29 23:25:00,
2013-04-29 16:30:00,58.2,33.4,30.99,NW,315,8.2,8.2,39,0.00,,BKN065,0.00,VWS V14.00,2013-04-29 23:30:00,
2013-04-29 16:35:00,58.1,33.3,30.99,NNW,338,0.4,0.4,39,0.00,,BKN065,0.00,VWS V14.00,2013-04-29 23:35:00,
2013-04-29 16:40:00,58.2,32.7,30.99,WNW,292,8.0,8.0,38,0.00,,BKN065,0.00,VWS V14.00,2013-04-29 23:40:00,
2013-04-29 16:45:00,58.4,32.9,30.99,NNW,338,3.8,3.8,38,0.00,,BKN065,0.00,VWS V14.00,2013-04-29 23:45:00,
2013-04-29 16:50:00,57.3,31.9,30.99,NNW,338,12.3,12.3,38,0.00,,BKN065,0.00,VWS V14.00,2013-04-29 23:50:00,
2013-04-29 16:55:00,57.7,31.6,30.99,WNW,292,9.1,9.1,37,0.00,,BKN065,0.00,VWS V14.00,2013-04-29 23:55:00,
2013-04-29 17:00:00,56.8,31.5,30.99,WNW,292,9.8,9.8,38,0.00,,BKN065,0.00,VWS V14.00,2013-04-30 00:00:00,
2013-04-29 17:05:00,55.9,31.3,30.99,West,270,10.9,10.9,39,0.00,,SCT065,0.00,VWS V14.00,2013-04-30 00:05:00,
2013-04-29 17:09:00,55.5,33.4,30.99,NNW,338,10.2,10.2,43,0.00,,SCT065,0.00,VWS V14.00,2013-04-30 00:09:00,
2013-04-29 17:14:00,55.2,33.7,30.99,NNW,338,11.6,11.6,44,0.00,,SCT065,0.00,VWS V14.00,2013-04-30 00:14:00,
2013-04-29 17:19:00,55.4,34.4,31.00,North,0,9.3,9.3,45,0.00,,SCT065,0.00,VWS V14.00,2013-04-30 00:19:00,
2013-04-29 17:24:00,56.4,35.3,31.00,NNW,338,12.3,12.3,45,0.00,,SCT065,0.00,VWS V14.00,2013-04-30 00:24:00,
2013-04-29 17:29:00,56.3,34.7,31.00,NW,315,11.6,11.6,44,0.00,,SCT065,0.00,VWS V14.00,2013-04-30 00:29:00,
2013-04-29 17:34:00,56.4,35.3,31.00,NW,315,18.3,18.3,45,0.00,,SCT065,0.00,VWS V14.00,2013-04-30 00:34:00,
2013-04-29 17:39:00,56.6,35.5,31.00,NNW,338,10.9,10.9,45,0.00,,SCT065,0.00,VWS V14.00,2013-04-30 00:39:00,
2013-04-29 17:44:00,56.1,34.5,31.00,NW,315,11.6,11.6,44,0.00,,FEW060,0.00,VWS V14.00,2013-04-30 00:44:00,
2013-04-29 17:49:00,55.0,33.5,31.00,NNW,338,12.3,12.3,44,0.00,,FEW060,0.00,VWS V14.00,2013-04-30 00:49:00,
2013-04-29 17:54:00,54.6,33.7,31.00,NW,315,14.9,14.9,45,0.00,,FEW060,0.00,VWS V14.00,2013-04-30 00:54:00,
2013-04-29 17:59:00,55.0,34.1,31.00,WNW,292,11.8,11.8,45,0.00,,FEW060,0.00,VWS V14.00,2013-04-30 00:59:00,
2013-04-29 18:04:00,53.7,33.4,31.01,NW,315,17.4,17.4,46,0.00,,FEW060,0.00,VWS V14.00,2013-04-30 01:04:00,
2013-04-29 18:09:00,53.4,33.2,31.01,NW,315,14.0,14.0,46,0.00,,FEW060,0.00,VWS V14.00,2013-04-30 01:09:00,
2013-04-29 18:14:00,51.6,32.0,31.00,NW,315,7.1,7.1,47,0.00,,FEW060,0.00,VWS V14.00,2013-04-30 01:14:00,
2013-04-29 18:19:00,51.2,31.7,31.00,West,270,8.2,8.2,47,0.00,,FEW060,0.00,VWS V14.00,2013-04-30 01:19:00,
2013-04-29 18:24:00,52.5,32.3,31.00,NW,315,8.0,8.0,46,0.00,,FEW060,0.00,VWS V14.00,2013-04-30 01:24:00,
2013-04-29 18:29:00,53.7,32.9,31.01,NW,315,14.5,14.5,45,0.00,,FEW060,0.00,VWS V14.00,2013-04-30 01:29:00,
2013-04-29 18:34:00,53.9,32.5,31.01,West,270,4.6,4.6,44,0.00,,FEW060,0.00,VWS V14.00,2013-04-30 01:34:00,
2013-04-29 18:39:00,52.5,31.8,31.00,West,270,2.0,2.0,45,0.00,,FEW060,0.00,VWS V14.00,2013-04-30 01:39:00,
2013-04-29 18:44:00,51.0,32.0,31.00,WNW,292,7.8,7.8,48,0.00,,FEW060,0.00,VWS V14.00,2013-04-30 01:44:00,
2013-04-29 18:49:00,50.5,32.1,31.00,NW,315,3.3,3.3,49,0.00,,FEW060,0.00,VWS V14.00,2013-04-30 01:49:00,
2013-04-29 18:54:00,49.8,31.9,31.00,NNW,338,2.6,2.6,50,0.00,,FEW060,0.00,VWS V14.00,2013-04-30 01:54:00,
2013-04-29 18:59:00,49.6,32.2,31.01,NNW,338,2.9,2.9,51,0.00,,FEW060,0.00,VWS V14.00,2013-04-30 01:59:00,
2013-04-29 19:04:00,49.4,32.0,31.00,NW,315,6.7,6.7,51,0.00,,SCT065,0.00,VWS V14.00,2013-04-30 02:04:00,
2013-04-29 19:09:00,49.2,32.3,31.01,NW,315,4.9,4.9,52,0.00,,SCT065,0.00,VWS V14.00,2013-04-30 02:09:00,
2013-04-29 19:14:00,49.2,32.8,31.01,NW,315,9.1,9.1,53,0.00,,SCT065,0.00,VWS V14.00,2013-04-30 02:14:00,
2013-04-29 19:19:00,49.1,32.7,31.00,NW,315,10.7,10.7,53,0.00,,SCT065,0.00,VWS V14.00,2013-04-30 02:19:00,
2013-04-29 19:24:00,48.9,33.0,31.01,NW,315,5.5,5.5,54,0.00,,SCT065,0.00,VWS V14.00,2013-04-30 02:24:00,
2013-04-29 19:30:00,48.3,32.4,31.01,NW,315,4.4,4.4,54,0.00,,SCT065,0.00,VWS V14.00,2013-04-30 02:30:00,
2013-04-29 19:35:00,48.0,32.6,31.01,WNW,292,8.7,8.7,55,0.00,,SCT065,0.00,VWS V14.00,2013-04-30 02:35:00,
2013-04-29 19:40:00,48.0,33.1,31.01,WNW,292,12.0,12.0,56,0.00,,SCT065,0.00,VWS V14.00,2013-04-30 02:40:00,
2013-04-29 19:45:00,47.4,33.0,31.01,West,270,5.5,5.5,57,0.00,,FEW065,0.00,VWS V14.00,2013-04-30 02:45:00,
2013-04-29 19:50:00,47.3,32.8,31.01,West,270,11.8,11.8,57,0.00,,FEW065,0.00,VWS V14.00,2013-04-30 02:50:00,
2013-04-29 19:55:00,47.1,33.1,31.01,WNW,292,8.0,8.0,58,0.00,,FEW065,0.00,VWS V14.00,2013-04-30 02:55:00,
2013-04-29 20:00:00,46.7,32.7,31.01,WNW,292,6.0,6.0,58,0.00,,FEW065,0.00,VWS V14.00,2013-04-30 03:00:00,
2013-04-29 20:05:00,46.4,32.4,31.01,WNW,292,7.1,7.1,58,0.00,,FEW065,0.00,VWS V14.00,2013-04-30 03:05:00,
2013-04-29 20:10:00,46.0,31.6,31.01,WNW,292,10.0,10.0,57,0.00,,FEW065,0.00,VWS V14.00,2013-04-30 03:10:00,
2013-04-29 20:15:00,46.0,31.6,31.01,NNW,338,7.6,7.6,57,0.00,,FEW065,0.00,VWS V14.00,2013-04-30 03:15:00,
2013-04-29 20:20:00,45.8,31.5,31.01,NNW,338,8.0,8.0,57,0.00,,FEW065,0.00,VWS V14.00,2013-04-30 03:20:00,
2013-04-29 20:25:00,45.6,31.3,31.01,NNW,338,2.2,2.2,57,0.00,,FEW065,0.00,VWS V14.00,2013-04-30 03:25:00,
2013-04-29 20:30:00,45.3,31.0,31.02,NW,315,8.0,8.0,57,0.00,,FEW065,0.00,VWS V14.00,2013-04-30 03:30:00,
2013-04-29 20:35:00,45.1,31.2,31.02,NW,315,12.3,12.3,58,0.00,,FEW065,0.00,VWS V14.00,2013-04-30 03:35:00,
2013-04-29 20:40:00,44.9,31.5,31.02,NW,315,0.6,0.6,59,0.00,,FEW065,0.00,VWS V14.00,2013-04-30 03:40:00,
2013-04-29 20:45:00,44.7,31.3,31.02,NNW,338,0.0,0.0,59,0.00,,FEW065,0.00,VWS V14.00,2013-04-30 03:45:00,
2013-04-29 20:50:00,44.4,31.4,31.02,North,0,3.1,3.1,60,0.00,,FEW065,0.00,VWS V14.00,2013-04-30 03:50:00,
2013-04-29 20:55:00,44.2,31.6,31.02,North,0,4.6,4.6,61,0.00,,FEW065,0.00,VWS V14.00,2013-04-30 03:55:00,
2013-04-29 21:00:00,43.8,31.2,31.02,North,0,3.5,3.5,61,0.00,,FEW065,0.00,VWS V14.00,2013-04-30 04:00:00,
2013-04-29 21:01:00,43.8,31.2,31.02,North,0,4.4,4.4,61,0.00,,BKN060,0.00,VWS V14.00,2013-04-30 04:01:00,
2013-04-29 21:06:00,43.8,31.2,31.02,NNW,338,5.8,5.8,61,0.00,,BKN060,0.00,VWS V14.00,2013-04-30 04:06:00,
2013-04-29 21:11:00,43.8,31.2,31.03,NNW,338,4.2,4.2,61,0.00,,BKN060,0.00,VWS V14.00,2013-04-30 04:11:00,
2013-04-29 21:16:00,43.7,31.5,31.03,NNW,338,4.6,4.6,62,0.00,,BKN060,0.00,VWS V14.00,2013-04-30 04:16:00,
2013-04-29 21:21:00,43.5,31.4,31.03,NNW,338,5.3,5.3,62,0.00,,BKN060,0.00,VWS V14.00,2013-04-30 04:21:00,
2013-04-29 21:26:00,43.5,31.8,31.03,NW,315,4.4,4.4,63,0.00,,BKN060,0.00,VWS V14.00,2013-04-30 04:26:00,
2013-04-29 21:31:00,43.5,32.2,31.03,NW,315,10.0,10.0,64,0.00,,BKN060,0.00,VWS V14.00,2013-04-30 04:31:00,
2013-04-29 21:36:00,43.5,32.2,31.03,NW,315,5.8,5.8,64,0.00,,BKN060,0.00,VWS V14.00,2013-04-30 04:36:00,
2013-04-29 21:41:00,43.3,32.0,31.03,NNW,338,3.8,3.8,64,0.00,,BKN060,0.00,VWS V14.00,2013-04-30 04:41:00,
2013-04-29 21:46:00,43.1,31.8,31.03,NW,315,4.6,4.6,64,0.00,,BKN060,0.00,VWS V14.00,2013-04-30 04:46:00,
2013-04-29 21:51:00,43.1,31.8,31.03,NW,315,4.6,4.6,64,0.00,,BKN060,0.00,VWS V14.00,2013-04-30 04:51:00,
2013-04-29 21:56:00,42.9,32.0,31.04,NNW,338,5.3,5.3,65,0.00,,BKN060,0.00,VWS V14.00,2013-04-30 04:56:00,
2013-04-29 22:01:00,42.9,32.0,31.04,NW,315,0.0,0.0,65,0.00,,CLR,0.00,VWS V14.00,2013-04-30 05:01:00,
2013-04-29 22:06:00,42.6,32.0,31.03,WNW,292,7.1,7.1,66,0.00,,CLR,0.00,VWS V14.00,2013-04-30 05:06:00,
2013-04-29 22:11:00,42.6,32.4,31.03,WNW,292,9.1,9.1,67,0.00,,CLR,0.00,VWS V14.00,2013-04-30 05:11:00,
2013-04-29 22:16:00,42.4,32.2,31.03,WNW,292,0.0,0.0,67,0.00,,CLR,0.00,VWS V14.00,2013-04-30 05:16:00,
2013-04-29 22:21:00,42.4,32.2,31.03,WNW,292,0.0,0.0,67,0.00,,CLR,0.00,VWS V14.00,2013-04-30 05:21:00,
2013-04-29 22:26:00,41.9,31.8,31.03,WNW,292,1.5,1.5,67,0.00,,CLR,0.00,VWS V14.00,2013-04-30 05:26:00,
2013-04-29 22:31:00,41.7,31.9,31.04,NW,315,0.0,0.0,68,0.00,,CLR,0.00,VWS V14.00,2013-04-30 05:31:00,
2013-04-29 22:36:00,41.5,31.7,31.04,WNW,292,0.0,0.0,68,0.00,,CLR,0.00,VWS V14.00,2013-04-30 05:36:00,
2013-04-29 22:41:00,41.1,31.7,31.04,WNW,292,0.0,0.0,69,0.00,,CLR,0.00,VWS V14.00,2013-04-30 05:41:00,
2013-04-29 22:46:00,41.1,32.1,31.04,WNW,292,0.0,0.0,70,0.00,,CLR,0.00,VWS V14.00,2013-04-30 05:46:00,
2013-04-29 22:51:00,40.8,31.8,31.04,WNW,292,0.0,0.0,70,0.00,,CLR,0.00,VWS V14.00,2013-04-30 05:51:00,
2013-04-29 22:56:00,40.8,32.1,31.04,NNW,338,2.4,2.4,71,0.00,,CLR,0.00,VWS V14.00,2013-04-30 05:56:00,
2013-04-29 23:01:00,40.8,32.1,31.04,NW,315,3.3,3.3,71,0.00,,CLR,0.00,VWS V14.00,2013-04-30 06:01:00,
2013-04-29 23:06:00,40.8,32.1,31.04,WNW,292,3.1,3.1,71,0.00,,CLR,0.00,VWS V14.00,2013-04-30 06:06:00,
2013-04-29 23:11:00,40.8,32.5,31.04,WNW,292,0.0,0.0,72,0.00,,CLR,0.00,VWS V14.00,2013-04-30 06:11:00,
2013-04-29 23:16:00,40.8,32.1,31.04,WNW,292,0.0,0.0,71,0.00,,CLR,0.00,VWS V14.00,2013-04-30 06:16:00,
2013-04-29 23:21:00,40.6,32.3,31.05,WNW,292,0.0,0.0,72,0.00,,CLR,0.00,VWS V14.00,2013-04-30 06:21:00,
2013-04-29 23:26:00,40.8,32.8,31.05,NW,315,6.7,6.7,73,0.00,,CLR,0.00,VWS V14.00,2013-04-30 06:26:00,
2013-04-29 23:31:00,41.0,33.4,31.05,NW,315,8.5,8.5,74,0.00,,CLR,0.00,VWS V14.00,2013-04-30 06:31:00,
2013-04-29 23:36:00,41.0,33.7,31.05,WNW,292,8.7,8.7,75,0.00,,CLR,0.00,VWS V14.00,2013-04-30 06:36:00,
2013-04-29 23:41:00,40.8,33.5,31.05,West,270,6.4,6.4,75,0.00,,CLR,0.00,VWS V14.00,2013-04-30 06:41:00,
2013-04-29 23:46:00,40.8,33.5,31.04,West,270,3.3,3.3,75,0.00,,CLR,0.00,VWS V14.00,2013-04-30 06:46:00,
2013-04-29 23:51:00,40.8,33.5,31.04,West,270,6.7,6.7,75,0.00,,CLR,0.00,VWS V14.00,2013-04-30 06:51:00,
2013-04-29 23:56:00,41.0,33.4,31.04,WNW,292,6.4,6.4,74,0.00,,CLR,0.00,VWS V14.00,2013-04-30 06:56:00,